This is the latest recevied weather packets stored in our database for station/object W7BL. If no packets are shown the sender has not sent any weather packets the latest 10 day(s).
| Time | Temp. | Humidity | Pressure | Rain* | Wind** | Luminosity | Snow |
|---|---|---|---|---|---|---|---|
| 1777591270 | 21.11° C | 26% | - | 0 mm | - | - | - |
| 1777590966 | 21.67° C | 26% | - | 0 mm | - | - | - |
| 1777590661 | 20.56° C | 28% | - | 0 mm | - | - | - |
| 1777590357 | 20.56° C | 28% | - | 0 mm | - | - | - |
| 1777590055 | 21.11° C | 28% | - | 0 mm | - | - | - |
| 1777589751 | 21.11° C | 29% | - | 0 mm | - | - | - |
| 1777589450 | 21.67° C | 27% | - | 0 mm | - | - | - |
| 1777589146 | 21.11° C | 27% | - | 0 mm | - | - | - |
| 1777588842 | 21.67° C | 30% | - | 0 mm | - | - | - |
| 1777588538 | 21.67° C | 27% | - | 0 mm | - | - | - |
| 1777588234 | 21.11° C | 28% | - | 0 mm | - | - | - |
| 1777587929 | 21.67° C | 30% | - | 0 mm | - | - | - |
| 1777587625 | 21.11° C | 28% | - | 0 mm | - | - | - |
| 1777587320 | 21.11° C | 30% | - | 0 mm | - | - | - |
| 1777587015 | 20° C | 29% | - | 0 mm | - | - | - |
| 1777586711 | 20.56° C | 30% | - | 0 mm | - | - | - |
| 1777586408 | 20.56° C | 30% | - | 0 mm | - | - | - |
| 1777586108 | 20.56° C | 30% | - | 0 mm | - | - | - |
| 1777585806 | 20.56° C | 28% | - | 0 mm | - | - | - |
| 1777585505 | 20° C | 32% | - | 0 mm | - | - | - |
| 1777585201 | 20° C | 31% | - | 0 mm | - | - | - |
| 1777584897 | 20° C | 31% | - | 0 mm | - | - | - |
| 1777584595 | 20° C | 30% | - | 0 mm | - | - | - |
| 1777584291 | 20° C | 31% | - | 0 mm | - | - | - |
| 1777583986 | 20.56° C | 33% | - | 0 mm | - | - | - |
* Rain latest hour (hover to see other rain measurements)
** Current wind speed in m/s (hover to see current wind gust speed)